Darstellungsparameter: Aktuell verwendete Einstellungen:
Skalierung der Graphiken ... ?
xyx+y,   Skalierungsfaktor:      Skalierung: Modus: x, Faktor: 1
Darstellungszeitraum ... ?
Vom - - bis: - -   Zeitraum: 24.09.2010 - 30.09.2010
Min/Max/Avg-Anzeige ... ?
Zeige MMA aktuell
Zeige MMA Monat
Zeige MMA alles
Zeige --A aktuell
Zeige --A Monat
Zeige --A alles
Keine MMA-Anzeige
MMA:
Minimum Maximum Average (ber die Originaldaten)
MMA-Basis: 24.09.2010 - 30.09.2010
Quicknavigation für Darstellung... ?
Tage:      1T, 2T, 3T, 5T -1T -2T -3T -5T +1T +2T +3T +5T
Wochen: 1W, 2W, 3W -1W -2W -3W +1W +2W +3W
Monate: 1M, 3M, 6M -1M -3M -6M +1M +3M +6M
Jahre:    1J, 3J, 5J, 10J -1J -3J -5J -10J +1J +3J +5J +10J
Nutze für die Darstellung ... ?
Originaldaten oder Mittelwerte auf ...
Stundenbasis Tagesbasis Wochenbasis
Monatsbasis Jahresbasis      Datenbasis: Original-Daten
Darstellen als:
Statistik (Auto) Statistik J:M      Darstellung:
Zur Graphik,    zurück zur Übersicht aller Sensoren.
 
Tabellarische Datenbersicht: ?
 
Sensor: Nr:Datum:Temp:Abs-Feuchte:Windchill:Wind:
Aussen-T/F 1 24-09-2010 00:09:02 16 C 12.13 g/m*3 16 C 0 km/h
2 24-09-2010 00:21:02 15.9 C 12.32 g/m*3 15.9 C 0 km/h
3 24-09-2010 00:33:02 15.6 C 12.1 g/m*3 15.6 C 0 km/h
4 24-09-2010 00:45:02 15.5 C 12.16 g/m*3 15.5 C 0 km/h
5 24-09-2010 00:57:02 15.5 C 12.16 g/m*3 15.5 C 0 km/h
6 24-09-2010 01:09:02 15.5 C 12.16 g/m*3 15.5 C 0 km/h
7 24-09-2010 01:21:02 15.5 C 12.29 g/m*3 15.5 C 0 km/h
8 24-09-2010 01:33:02 15.6 C 12.37 g/m*3 15.6 C 0 km/h
9 24-09-2010 01:45:02 15.6 C 12.37 g/m*3 15.6 C 0 km/h
10 24-09-2010 01:57:03 15.5 C 12.29 g/m*3 15.5 C 0 km/h
11 24-09-2010 02:09:03 15.5 C 12.29 g/m*3 15.5 C 0 km/h
12 24-09-2010 02:21:03 15.5 C 12.29 g/m*3 15.5 C 0 km/h
13 24-09-2010 02:33:03 15.4 C 12.22 g/m*3 15.4 C 0 km/h
14 24-09-2010 02:45:03 15.3 C 12.01 g/m*3 15.3 C 0 km/h
15 24-09-2010 02:57:03 15.2 C 11.94 g/m*3 15.2 C 0 km/h
16 24-09-2010 03:09:03 15.1 C 11.87 g/m*3 15.1 C 0 km/h
17 24-09-2010 03:21:03 14.9 C 11.85 g/m*3 14.9 C 0 km/h
18 24-09-2010 03:33:03 14.9 C 11.85 g/m*3 14.9 C 0 km/h
19 24-09-2010 03:45:03 14.9 C 11.98 g/m*3 14.9 C 0 km/h
20 24-09-2010 03:57:03 14.9 C 11.98 g/m*3 14.9 C 0 km/h
21 24-09-2010 04:09:03 14.8 C 11.91 g/m*3 14.8 C 0 km/h
22 24-09-2010 04:21:03 14.8 C 11.91 g/m*3 14.8 C 0 km/h
23 24-09-2010 04:33:03 14.8 C 11.91 g/m*3 14.8 C 0 km/h
24 24-09-2010 04:45:03 14.8 C 11.91 g/m*3 14.8 C 0 km/h
25 24-09-2010 04:57:03 14.7 C 11.83 g/m*3 14.7 C 0 km/h
Sensor: Nr:Datum:Temp:Abs-Feuchte:Windchill:Wind:
Aussen-T/F 26 24-09-2010 05:09:03 14.5 C 11.69 g/m*3 14.5 C 0 km/h
27 24-09-2010 05:21:03 14.5 C 11.69 g/m*3 14.5 C 0 km/h
28 24-09-2010 05:33:03 14.5 C 11.69 g/m*3 14.5 C 0 km/h
29 24-09-2010 05:45:03 14.6 C 11.76 g/m*3 14.6 C 0 km/h
30 24-09-2010 05:57:03 14.6 C 11.76 g/m*3 14.6 C 0 km/h
31 24-09-2010 06:09:03 14.7 C 11.83 g/m*3 14.7 C 0 km/h
32 24-09-2010 06:21:04 14.7 C 11.83 g/m*3 14.7 C 0 km/h
33 24-09-2010 06:33:04 14.7 C 11.83 g/m*3 14.7 C 0 km/h
34 24-09-2010 06:45:04 14.7 C 11.83 g/m*3 14.7 C 0 km/h
35 24-09-2010 06:57:04 14.7 C 11.83 g/m*3 14.7 C 0 km/h
36 24-09-2010 07:09:04 14.5 C 11.69 g/m*3 14.5 C 0 km/h
37 24-09-2010 07:21:04 14.4 C 11.62 g/m*3 14.4 C 0 km/h
38 24-09-2010 07:33:02 14.3 C 11.55 g/m*3 14.3 C 0 km/h
39 24-09-2010 07:45:02 14.4 C 11.62 g/m*3 14.4 C 0 km/h
40 24-09-2010 07:57:02 14.4 C 11.62 g/m*3 14.4 C 0 km/h
41 24-09-2010 08:09:02 14.4 C 11.62 g/m*3 14.4 C 0 km/h
42 24-09-2010 08:21:01 14.3 C 11.55 g/m*3 14.3 C 0 km/h
43 24-09-2010 08:33:02 14.6 C 11.89 g/m*3 14.6 C 0 km/h
44 24-09-2010 08:45:02 14.8 C 12.03 g/m*3 14.8 C 0 km/h
45 24-09-2010 08:57:02 14.8 C 12.03 g/m*3 14.8 C 0 km/h
46 24-09-2010 09:09:01 14.8 C 12.03 g/m*3 14.8 C 0 km/h
47 24-09-2010 09:21:02 14.8 C 12.03 g/m*3 14.8 C 0 km/h
48 24-09-2010 09:33:01 14.9 C 12.11 g/m*3 14.9 C 0 km/h
49 24-09-2010 09:45:02 14.9 C 12.11 g/m*3 14.9 C 0 km/h
50 24-09-2010 09:57:02 15 C 12.05 g/m*3 15 C 0 km/h
Sensor: Nr:Datum:Temp:Abs-Feuchte:Windchill:Wind:
Aussen-T/F 51 24-09-2010 10:09:02 15 C 12.05 g/m*3 15 C 0 km/h
52 24-09-2010 10:21:02 14.9 C 12.11 g/m*3 14.9 C 0 km/h
53 24-09-2010 10:33:02 15 C 12.05 g/m*3 15 C 0 km/h
54 24-09-2010 10:45:01 15 C 12.05 g/m*3 15 C 0 km/h
55 24-09-2010 10:57:01 15 C 12.05 g/m*3 15 C 0 km/h
56 24-09-2010 11:09:02 15.1 C 12.13 g/m*3 15.1 C 0 km/h
57 24-09-2010 11:21:01 15.1 C 12.13 g/m*3 15.1 C 0 km/h
58 24-09-2010 11:33:01 15.4 C 12.35 g/m*3 15.4 C 0 km/h
59 24-09-2010 11:45:02 15.4 C 12.35 g/m*3 15.4 C 0 km/h
60 24-09-2010 11:57:02 15.1 C 12.13 g/m*3 15.1 C 0 km/h
61 24-09-2010 12:09:02 15.1 C 12.13 g/m*3 15.1 C 0 km/h
62 24-09-2010 12:21:02 15.1 C 12.13 g/m*3 15.1 C 0 km/h
63 24-09-2010 12:33:03 15.4 C 12.48 g/m*3 15.4 C 0 km/h
64 24-09-2010 12:45:02 15.1 C 12.13 g/m*3 15.1 C 0 km/h
65 24-09-2010 12:57:03 15 C 12.05 g/m*3 15 C 0 km/h
66 24-09-2010 13:09:02 14.8 C 11.91 g/m*3 14.8 C 0 km/h
67 24-09-2010 13:21:02 14.6 C 11.76 g/m*3 14.6 C 0 km/h
68 24-09-2010 13:33:02 14.5 C 11.69 g/m*3 14.5 C 0 km/h
69 24-09-2010 13:45:02 14.5 C 11.69 g/m*3 14.5 C 0 km/h
70 24-09-2010 13:57:02 14.4 C 11.62 g/m*3 14.4 C 0 km/h
71 24-09-2010 14:09:03 14.1 C 11.41 g/m*3 14.1 C 0 km/h
72 24-09-2010 14:21:02 13.8 C 11.2 g/m*3 13.8 C 0 km/h
73 24-09-2010 14:33:03 13.5 C 10.99 g/m*3 13.5 C 0 km/h
74 24-09-2010 14:45:02 13.2 C 10.79 g/m*3 13.2 C 0 km/h
75 24-09-2010 14:57:02 13.1 C 10.73 g/m*3 13.1 C 0 km/h
Sensor: Nr:Datum:Temp:Abs-Feuchte:Windchill:Wind:
Aussen-T/F 76 24-09-2010 15:09:02 12.9 C 10.71 g/m*3 12.9 C 0 km/h
77 24-09-2010 15:21:03 13.1 C 10.73 g/m*3 13.1 C 0 km/h
78 24-09-2010 15:33:02 13 C 10.77 g/m*3 13 C 0 km/h
79 24-09-2010 15:45:03 13.2 C 10.91 g/m*3 13.2 C 0 km/h
80 24-09-2010 15:57:03 13.2 C 10.91 g/m*3 13.2 C 0 km/h
81 24-09-2010 16:09:02 13.3 C 10.98 g/m*3 13.3 C 0 km/h
82 24-09-2010 16:21:02 13.7 C 11.25 g/m*3 13.7 C 0 km/h
83 24-09-2010 16:33:02 14 C 11.46 g/m*3 14 C 0 km/h
84 24-09-2010 16:45:02 14.1 C 11.53 g/m*3 14.1 C 0 km/h
85 24-09-2010 16:57:02 13.9 C 11.39 g/m*3 13.9 C 0 km/h
86 24-09-2010 17:09:02 13.9 C 11.39 g/m*3 13.9 C 0 km/h
87 24-09-2010 17:21:02 13.9 C 11.39 g/m*3 13.9 C 0 km/h
88 24-09-2010 17:33:02 13.4 C 10.93 g/m*3 13.4 C 0 km/h
89 24-09-2010 17:45:02 13.2 C 10.79 g/m*3 13.2 C 0 km/h
90 24-09-2010 17:57:02 13 C 10.66 g/m*3 13 C 0 km/h
91 24-09-2010 18:09:01 13.2 C 10.79 g/m*3 13.2 C 0 km/h
92 24-09-2010 18:21:01 13.3 C 10.86 g/m*3 13.3 C 0 km/h
93 24-09-2010 18:33:02 13.3 C 10.86 g/m*3 13.3 C 0 km/h
94 24-09-2010 18:45:02 13.3 C 10.86 g/m*3 13.3 C 0 km/h
95 24-09-2010 18:57:02 13.2 C 10.79 g/m*3 13.2 C 0 km/h
96 24-09-2010 19:09:02 13.1 C 10.73 g/m*3 13.1 C 0 km/h
97 24-09-2010 19:21:01 12.9 C 10.71 g/m*3 12.9 C 0 km/h
98 24-09-2010 19:33:02 12.8 C 10.64 g/m*3 12.8 C 0 km/h
99 24-09-2010 19:45:02 12.7 C 10.58 g/m*3 12.7 C 0 km/h
100 24-09-2010 19:57:02 12.7 C 10.58 g/m*3 12.7 C 0 km/h
Sensor: Nr:Datum:Temp:Abs-Feuchte:Windchill:Wind:
Aussen-T/F 101 24-09-2010 20:09:02 12.7 C 10.58 g/m*3 12.7 C 0 km/h
102 24-09-2010 20:21:01 12.7 C 10.58 g/m*3 12.7 C 0 km/h
103 24-09-2010 20:33:02 12.7 C 10.58 g/m*3 12.7 C 0 km/h
104 24-09-2010 20:45:01 12.7 C 10.58 g/m*3 12.7 C 0 km/h
105 24-09-2010 20:57:01 12.7 C 10.58 g/m*3 12.7 C 0 km/h
106 24-09-2010 21:09:02 12.8 C 10.64 g/m*3 12.8 C 0 km/h
107 24-09-2010 21:21:02 12.8 C 10.64 g/m*3 12.8 C 0 km/h
108 24-09-2010 21:33:02 12.9 C 10.71 g/m*3 12.9 C 0 km/h
109 24-09-2010 21:45:02 12.8 C 10.64 g/m*3 12.8 C 0 km/h
110 24-09-2010 21:57:02 12.8 C 10.64 g/m*3 12.8 C 0 km/h
111 24-09-2010 22:09:01 12.8 C 10.64 g/m*3 12.8 C 0 km/h
112 24-09-2010 22:21:02 12.8 C 10.64 g/m*3 12.8 C 0 km/h
113 24-09-2010 22:33:02 12.7 C 10.58 g/m*3 12.7 C 0 km/h
114 24-09-2010 22:46:04 12.6 C 10.51 g/m*3 12.6 C 0 km/h
115 24-09-2010 22:58:04 12.6 C 10.51 g/m*3 12.6 C 0 km/h
116 24-09-2010 23:10:04 12.5 C 10.44 g/m*3 12.5 C 0 km/h
117 24-09-2010 23:22:04 12.4 C 10.38 g/m*3 12.4 C 0 km/h
118 24-09-2010 23:34:04 12.4 C 10.38 g/m*3 12.4 C 0 km/h
119 24-09-2010 23:46:04 12.3 C 10.32 g/m*3 12.3 C 0 km/h
120 24-09-2010 23:58:04 12.4 C 10.38 g/m*3 12.4 C 0 km/h
121 25-09-2010 00:10:04 12.4 C 10.38 g/m*3 12.4 C 0 km/h
122 25-09-2010 00:22:04 12.5 C 10.44 g/m*3 12.5 C 0 km/h
123 25-09-2010 00:34:04 12.5 C 10.44 g/m*3 12.5 C 0 km/h
124 25-09-2010 00:46:04 12.5 C 10.44 g/m*3 12.5 C 0 km/h
125 25-09-2010 00:58:05 12.5 C 10.44 g/m*3 12.5 C 0 km/h
Sensor: Nr:Datum:Temp:Abs-Feuchte:Windchill:Wind:
Aussen-T/F 126 25-09-2010 01:10:05 12.5 C 10.44 g/m*3 12.5 C 0 km/h
127 25-09-2010 01:22:05 12.5 C 10.44 g/m*3 12.5 C 0 km/h
128 25-09-2010 01:34:05 12.5 C 10.44 g/m*3 12.5 C 0 km/h
129 25-09-2010 01:46:05 12.5 C 10.44 g/m*3 12.5 C 0 km/h
130 25-09-2010 01:58:05 12.6 C 10.51 g/m*3 12.6 C 0 km/h
131 25-09-2010 02:10:05 12.6 C 10.51 g/m*3 12.6 C 0 km/h
132 25-09-2010 02:22:05 12.6 C 10.51 g/m*3 12.6 C 0 km/h
133 25-09-2010 02:34:05 12.6 C 10.51 g/m*3 12.6 C 0 km/h
134 25-09-2010 02:46:05 12.6 C 10.51 g/m*3 12.6 C 0 km/h
135 25-09-2010 02:58:05 12.6 C 10.51 g/m*3 12.6 C 0 km/h
136 25-09-2010 03:10:05 12.7 C 10.58 g/m*3 12.7 C 0 km/h
137 25-09-2010 03:22:05 12.6 C 10.51 g/m*3 12.6 C 0 km/h
138 25-09-2010 03:34:05 12.6 C 10.51 g/m*3 12.6 C 0 km/h
139 25-09-2010 03:46:05 12.6 C 10.51 g/m*3 12.6 C 0 km/h
140 25-09-2010 03:58:05 12.6 C 10.51 g/m*3 12.6 C 0 km/h
141 25-09-2010 04:10:05 12.6 C 10.51 g/m*3 12.6 C 0 km/h
142 25-09-2010 04:22:05 12.5 C 10.44 g/m*3 12.5 C 0 km/h
143 25-09-2010 04:34:05 12.6 C 10.51 g/m*3 12.6 C 0 km/h
144 25-09-2010 04:46:05 12.5 C 10.44 g/m*3 12.5 C 0 km/h
145 25-09-2010 04:58:06 12.5 C 10.44 g/m*3 12.5 C 0 km/h
146 25-09-2010 05:10:06 12.5 C 10.44 g/m*3 12.5 C 0 km/h
147 25-09-2010 05:22:06 12.4 C 10.38 g/m*3 12.4 C 0 km/h
148 25-09-2010 05:34:06 12.4 C 10.38 g/m*3 12.4 C 0 km/h
149 25-09-2010 05:46:06 12.3 C 10.32 g/m*3 12.3 C 0 km/h
150 25-09-2010 05:58:06 12.3 C 10.21 g/m*3 12.3 C 0 km/h
Sensor: Nr:Datum:Temp:Abs-Feuchte:Windchill:Wind:
Aussen-T/F 151 25-09-2010 06:10:06 12.1 C 10.08 g/m*3 12.1 C 0 km/h
152 25-09-2010 06:22:06 12.1 C 10.08 g/m*3 12.1 C 0 km/h
153 25-09-2010 06:34:06 12.1 C 10.08 g/m*3 12.1 C 0 km/h
154 25-09-2010 06:46:06 12 C 10.02 g/m*3 12 C 0 km/h
155 25-09-2010 06:58:06 12 C 10.02 g/m*3 12 C 0 km/h
156 25-09-2010 07:10:06 12 C 10.02 g/m*3 12 C 0 km/h
157 25-09-2010 07:22:06 11.9 C 9.96 g/m*3 11.9 C 0 km/h
158 25-09-2010 07:34:06 11.9 C 9.96 g/m*3 11.9 C 0 km/h
159 25-09-2010 07:46:02 11.8 C 9.89 g/m*3 11.8 C 0 km/h
160 25-09-2010 07:58:02 11.8 C 9.89 g/m*3 11.8 C 0 km/h
161 25-09-2010 08:10:02 11.7 C 9.83 g/m*3 11.7 C 0 km/h
162 25-09-2010 08:22:02 11.6 C 9.77 g/m*3 11.6 C 0 km/h
163 25-09-2010 08:34:02 11.2 C 9.43 g/m*3 11.2 C 0 km/h
164 25-09-2010 08:46:02 11 C 9.31 g/m*3 11 C 0 km/h
165 25-09-2010 08:58:02 10.8 C 9.19 g/m*3 10.8 C 0 km/h
166 25-09-2010 09:10:01 10.6 C 9.08 g/m*3 10.6 C 0 km/h
167 25-09-2010 09:22:02 10.4 C 8.96 g/m*3 10.4 C 0 km/h
168 25-09-2010 09:34:02 10.5 C 8.92 g/m*3 10.5 C 0 km/h
169 25-09-2010 09:46:02 10.5 C 8.83 g/m*3 10.5 C 0 km/h
170 25-09-2010 09:58:02 10.4 C 8.29 g/m*3 10.4 C 0 km/h
171 25-09-2010 10:10:03 10.5 C 8.15 g/m*3 10.5 C 0 km/h
172 25-09-2010 10:22:02 10.8 C 8.2 g/m*3 10.8 C 0 km/h
173 25-09-2010 10:34:02 11.1 C 8.36 g/m*3 11.1 C 0 km/h
174 25-09-2010 10:46:01 11.3 C 8.36 g/m*3 11.3 C 0 km/h
175 25-09-2010 10:58:01 11.5 C 8.16 g/m*3 11.5 C 0 km/h
Sensor: Nr:Datum:Temp:Abs-Feuchte:Windchill:Wind:
Aussen-T/F 176 25-09-2010 11:10:02 11.6 C 7.8 g/m*3 11.6 C 0 km/h
177 25-09-2010 11:22:01 12.1 C 7.72 g/m*3 12.1 C 0 km/h
178 25-09-2010 11:34:02 12.3 C 7.38 g/m*3 12.3 C 0 km/h
179 25-09-2010 11:46:01 12.5 C 7.26 g/m*3 12.5 C 0 km/h
180 25-09-2010 11:58:01 13 C 7.03 g/m*3 13 C 0 km/h
181 25-09-2010 12:10:02 12.8 C 6.83 g/m*3 12.8 C 0 km/h
182 25-09-2010 12:22:01 12.8 C 7.06 g/m*3 12.8 C 0 km/h
183 25-09-2010 12:34:02 12.4 C 6.88 g/m*3 12.4 C 0 km/h
184 25-09-2010 12:46:02 11.8 C 6.84 g/m*3 11.8 C 0 km/h
185 25-09-2010 12:58:02 12.4 C 6.88 g/m*3 12.4 C 0 km/h
186 25-09-2010 13:10:02 12.7 C 6.68 g/m*3 12.7 C 0 km/h
187 25-09-2010 13:22:01 13 C 6.35 g/m*3 13 C 0 km/h
188 25-09-2010 13:34:02 13.8 C 6.43 g/m*3 13.8 C 0 km/h
189 25-09-2010 13:46:01 13.5 C 5.38 g/m*3 13.5 C 0 km/h
190 25-09-2010 13:58:01 13.3 C 5.31 g/m*3 13.3 C 0 km/h
191 25-09-2010 14:10:02 13.7 C 5.45 g/m*3 13.7 C 0 km/h
192 25-09-2010 14:22:01 13.5 C 5.5 g/m*3 13.5 C 0 km/h
193 25-09-2010 14:34:02 13.8 C 5.36 g/m*3 13.8 C 0 km/h
194 25-09-2010 14:46:01 14.4 C 5.32 g/m*3 14.4 C 0 km/h
195 25-09-2010 14:58:01 15.8 C 5.12 g/m*3 15.8 C 0 km/h
196 25-09-2010 15:10:02 14.8 C 4.43 g/m*3 14.8 C 0 km/h
197 25-09-2010 15:22:02 14.5 C 4.6 g/m*3 14.5 C 0 km/h
198 25-09-2010 15:34:01 15.7 C 4.68 g/m*3 15.7 C 0 km/h
199 25-09-2010 15:46:02 15.5 C 4.63 g/m*3 15.5 C 0 km/h
200 25-09-2010 15:58:02 14.7 C 5.04 g/m*3 14.7 C 0 km/h
Sensor: Nr:Datum:Temp:Abs-Feuchte:Windchill:Wind:
Aussen-T/F 201 25-09-2010 16:10:01 14.2 C 4.88 g/m*3 14.2 C 0 km/h
202 25-09-2010 16:22:02 14.4 C 5.07 g/m*3 14.4 C 0 km/h
203 25-09-2010 16:34:01 14.7 C 5.16 g/m*3 14.7 C 0 km/h
204 25-09-2010 16:46:02 15.6 C 4.79 g/m*3 15.6 C 0 km/h
205 25-09-2010 16:58:02 14.7 C 4.91 g/m*3 14.7 C 0 km/h
206 25-09-2010 17:10:02 14.3 C 4.91 g/m*3 14.3 C 0 km/h
207 25-09-2010 17:22:02 14.8 C 5.32 g/m*3 14.8 C 0 km/h
208 25-09-2010 17:34:03 15.6 C 5.19 g/m*3 15.6 C 0 km/h
209 25-09-2010 17:46:02 16.8 C 5.15 g/m*3 16.8 C 0 km/h
210 25-09-2010 17:58:02 16.5 C 4.77 g/m*3 16.5 C 0 km/h
211 25-09-2010 18:10:01 15.4 C 4.47 g/m*3 15.4 C 0 km/h
212 25-09-2010 18:22:01 14.3 C 4.67 g/m*3 14.3 C 0 km/h
213 25-09-2010 18:34:02 13.9 C 4.92 g/m*3 13.9 C 0 km/h
214 25-09-2010 18:46:02 13.8 C 5.36 g/m*3 13.8 C 0 km/h
215 25-09-2010 18:58:02 13.7 C 5.8 g/m*3 13.7 C 0 km/h
216 25-09-2010 19:10:02 13.5 C 5.5 g/m*3 13.5 C 0 km/h
217 25-09-2010 19:22:02 13.1 C 5.59 g/m*3 13.1 C 0 km/h
218 25-09-2010 19:34:02 13 C 5.67 g/m*3 13 C 0 km/h
219 25-09-2010 19:46:02 12.7 C 5.9 g/m*3 12.7 C 0 km/h
220 25-09-2010 19:58:02 12.6 C 6.08 g/m*3 12.6 C 0 km/h
221 25-09-2010 20:10:02 12.5 C 5.72 g/m*3 12.5 C 0 km/h
222 25-09-2010 20:22:02 12.2 C 5.61 g/m*3 12.2 C 0 km/h
223 25-09-2010 20:34:02 11.8 C 5.79 g/m*3 11.8 C 0 km/h
224 25-09-2010 20:46:02 11.1 C 6.04 g/m*3 11.1 C 0 km/h
225 25-09-2010 20:58:02 10.9 C 6.17 g/m*3 10.9 C 0 km/h
Sensor: Nr:Datum:Temp:Abs-Feuchte:Windchill:Wind:
Aussen-T/F 226 25-09-2010 21:10:02 10.4 C 6.17 g/m*3 10.4 C 0 km/h
227 25-09-2010 21:22:03 10.2 C 6.28 g/m*3 10.2 C 0 km/h
228 25-09-2010 21:34:02 10.1 C 6.34 g/m*3 10.1 C 0 km/h
229 25-09-2010 21:46:03 10 C 6.3 g/m*3 10 C 0 km/h
230 25-09-2010 21:58:03 9.9 C 6.44 g/m*3 9.9 C 0 km/h
231 25-09-2010 22:10:02 9.9 C 6.54 g/m*3 9.9 C 0 km/h
232 25-09-2010 22:22:02 10.2 C 6.57 g/m*3 10.2 C 0 km/h
233 25-09-2010 22:34:02 10.5 C 6.69 g/m*3 10.5 C 0 km/h
234 25-09-2010 22:46:02 10.5 C 6.69 g/m*3 10.5 C 0 km/h
235 25-09-2010 22:58:02 10.3 C 6.9 g/m*3 10.3 C 0 km/h
236 25-09-2010 23:10:02 9.6 C 7.15 g/m*3 9.6 C 0 km/h
237 25-09-2010 23:22:02 9.3 C 7.28 g/m*3 9.3 C 0 km/h
238 25-09-2010 23:34:01 9.2 C 7.5 g/m*3 9.2 C 0 km/h
239 25-09-2010 23:46:02 9.1 C 7.45 g/m*3 9.1 C 0 km/h
240 25-09-2010 23:58:02 9.2 C 7.59 g/m*3 9.2 C 0 km/h
241 26-09-2010 00:10:01 9.1 C 7.63 g/m*3 9.1 C 0 km/h
242 26-09-2010 00:22:02 9.5 C 7.92 g/m*3 9.5 C 0 km/h
243 26-09-2010 00:34:02 9.5 C 7.92 g/m*3 9.5 C 0 km/h
244 26-09-2010 00:46:02 9.6 C 7.79 g/m*3 9.6 C 0 km/h
245 26-09-2010 00:58:02 9.5 C 7.55 g/m*3 9.5 C 0 km/h
246 26-09-2010 01:10:02 9.5 C 7.37 g/m*3 9.5 C 0 km/h
247 26-09-2010 01:22:02 9.5 C 7.28 g/m*3 9.5 C 0 km/h
248 26-09-2010 01:34:02 9.4 C 7.15 g/m*3 9.4 C 0 km/h
249 26-09-2010 01:46:01 9.5 C 7.19 g/m*3 9.5 C 0 km/h
250 26-09-2010 01:58:01 9.5 C 7.19 g/m*3 9.5 C 0 km/h
Sensor: Nr:Datum:Temp:Abs-Feuchte:Windchill:Wind:
Aussen-T/F 251 26-09-2010 02:10:02 9.5 C 7.19 g/m*3 9.5 C 0 km/h
252 26-09-2010 02:22:01 9.5 C 7.1 g/m*3 9.5 C 0 km/h
253 26-09-2010 02:34:01 9.3 C 7.01 g/m*3 9.3 C 0 km/h
254 26-09-2010 02:46:01 9.4 C 6.96 g/m*3 9.4 C 0 km/h
255 26-09-2010 02:58:01 9.4 C 6.96 g/m*3 9.4 C 0 km/h
256 26-09-2010 03:10:01 9.3 C 6.92 g/m*3 9.3 C 0 km/h
257 26-09-2010 03:22:01 9.3 C 7.01 g/m*3 9.3 C 0 km/h
258 26-09-2010 03:34:01 9.3 C 7.1 g/m*3 9.3 C 0 km/h
259 26-09-2010 03:46:01 9.1 C 7.1 g/m*3 9.1 C 0 km/h
260 26-09-2010 03:58:01 9 C 7.23 g/m*3 9 C 0 km/h
261 26-09-2010 04:10:01 9 C 7.32 g/m*3 9 C 0 km/h
262 26-09-2010 04:22:01 9 C 7.23 g/m*3 9 C 0 km/h
263 26-09-2010 04:34:02 8.9 C 7.27 g/m*3 8.9 C 0 km/h
264 26-09-2010 04:46:01 8.7 C 7.26 g/m*3 8.7 C 0 km/h
265 26-09-2010 04:58:01 8.8 C 7.31 g/m*3 8.8 C 0 km/h
266 26-09-2010 05:10:02 9 C 7.32 g/m*3 9 C 0 km/h
267 26-09-2010 05:22:01 9.1 C 7.36 g/m*3 9.1 C 0 km/h
268 26-09-2010 05:34:01 9 C 7.32 g/m*3 9 C 0 km/h
269 26-09-2010 05:46:01 9 C 7.32 g/m*3 9 C 0 km/h
270 26-09-2010 05:58:01 9 C 7.32 g/m*3 9 C 0 km/h
271 26-09-2010 06:10:02 9 C 7.32 g/m*3 9 C 0 km/h
272 26-09-2010 06:22:01 9.1 C 7.36 g/m*3 9.1 C 0 km/h
273 26-09-2010 06:34:01 8.8 C 7.31 g/m*3 8.8 C 0 km/h
274 26-09-2010 06:46:01 8.8 C 7.4 g/m*3 8.8 C 0 km/h
275 26-09-2010 06:58:01 8.8 C 7.49 g/m*3 8.8 C 0 km/h
Sensor: Nr:Datum:Temp:Abs-Feuchte:Windchill:Wind:
Aussen-T/F 276 26-09-2010 07:10:01 8.8 C 7.49 g/m*3 8.8 C 0 km/h
277 26-09-2010 07:22:02 8.5 C 7.26 g/m*3 8.5 C 0 km/h
278 26-09-2010 07:34:01 8.6 C 7.39 g/m*3 8.6 C 0 km/h
279 26-09-2010 07:46:02 8.9 C 7.62 g/m*3 8.9 C 0 km/h
280 26-09-2010 07:58:02 9.2 C 7.5 g/m*3 9.2 C 0 km/h
281 26-09-2010 08:10:01 9.5 C 7.55 g/m*3 9.5 C 0 km/h
282 26-09-2010 08:22:02 9.6 C 7.33 g/m*3 9.6 C 0 km/h
283 26-09-2010 08:34:01 9.7 C 7.19 g/m*3 9.7 C 0 km/h
284 26-09-2010 08:46:02 9.7 C 7.19 g/m*3 9.7 C 0 km/h
285 26-09-2010 08:58:02 9.6 C 7.24 g/m*3 9.6 C 0 km/h
286 26-09-2010 09:10:01 9.4 C 7.24 g/m*3 9.4 C 0 km/h
287 26-09-2010 09:22:01 9.4 C 7.33 g/m*3 9.4 C 0 km/h
288 26-09-2010 09:34:02 10.5 C 7.57 g/m*3 10.5 C 0 km/h
289 26-09-2010 09:46:01 11 C 7.11 g/m*3 11 C 0 km/h
290 26-09-2010 09:58:01 11 C 6.61 g/m*3 11 C 0 km/h
291 26-09-2010 10:10:02 11 C 6.61 g/m*3 11 C 0 km/h
292 26-09-2010 10:22:01 11.6 C 6.76 g/m*3 11.6 C 0 km/h
293 26-09-2010 10:34:02 12 C 6.61 g/m*3 12 C 0 km/h
294 26-09-2010 10:46:01 11.9 C 6.78 g/m*3 11.9 C 0 km/h
295 26-09-2010 10:58:01 12.7 C 7.01 g/m*3 12.7 C 0 km/h
296 26-09-2010 11:10:02 12.9 C 6.42 g/m*3 12.9 C 0 km/h
297 26-09-2010 11:22:01 13.1 C 6.5 g/m*3 13.1 C 0 km/h
298 26-09-2010 11:34:02 13.2 C 6.66 g/m*3 13.2 C 0 km/h
299 26-09-2010 11:46:02 13.5 C 6.32 g/m*3 13.5 C 0 km/h
300 26-09-2010 11:58:02 13.4 C 6.28 g/m*3 13.4 C 0 km/h
Sensor: Nr:Datum:Temp:Abs-Feuchte:Windchill:Wind:
Aussen-T/F 301 26-09-2010 12:10:01 14 C 6.39 g/m*3 14 C 0 km/h
302 26-09-2010 12:22:02 14.3 C 6.51 g/m*3 14.3 C 0 km/h
303 26-09-2010 12:34:01 14.6 C 6.51 g/m*3 14.6 C 0 km/h
304 26-09-2010 12:46:01 15 C 6.28 g/m*3 15 C 0 km/h
305 26-09-2010 12:58:01 14.5 C 6.22 g/m*3 14.5 C 0 km/h
306 26-09-2010 13:10:02 14.5 C 6.34 g/m*3 14.5 C 0 km/h
307 26-09-2010 13:22:01 13.2 C 7.12 g/m*3 13.2 C 0 km/h
308 26-09-2010 13:34:01 12.6 C 7.63 g/m*3 12.6 C 0 km/h
309 26-09-2010 13:46:01 12.4 C 8.3 g/m*3 12.4 C 0 km/h
310 26-09-2010 13:58:01 12.3 C 8.25 g/m*3 12.3 C 0 km/h
311 26-09-2010 14:10:01 13.2 C 8.61 g/m*3 13.2 C 0 km/h
312 26-09-2010 14:22:01 13.4 C 8.37 g/m*3 13.4 C 0 km/h
313 26-09-2010 14:34:01 13.3 C 8.43 g/m*3 13.3 C 0 km/h
314 26-09-2010 14:46:01 13.2 C 8.15 g/m*3 13.2 C 0 km/h
315 26-09-2010 14:58:01 13.4 C 7.9 g/m*3 13.4 C 0 km/h
316 26-09-2010 15:10:01 13.6 C 7.89 g/m*3 13.6 C 0 km/h
317 26-09-2010 15:22:02 13.9 C 8.39 g/m*3 13.9 C 0 km/h
318 26-09-2010 15:34:01 14.4 C 8.16 g/m*3 14.4 C 0 km/h
319 26-09-2010 15:46:02 14.5 C 7.96 g/m*3 14.5 C 0 km/h
320 26-09-2010 15:58:02 14.5 C 8.21 g/m*3 14.5 C 0 km/h
321 26-09-2010 16:10:01 13.7 C 7.7 g/m*3 13.7 C 0 km/h
322 26-09-2010 16:22:02 13.8 C 7.51 g/m*3 13.8 C 0 km/h
323 26-09-2010 16:34:01 15.7 C 7.09 g/m*3 15.7 C 0 km/h
324 26-09-2010 16:46:01 15.5 C 6.21 g/m*3 15.5 C 0 km/h
325 26-09-2010 16:58:01 15.9 C 6.5 g/m*3 15.9 C 0 km/h
Sensor: Nr:Datum:Temp:Abs-Feuchte:Windchill:Wind:
Aussen-T/F 326 26-09-2010 17:10:01 16.1 C 6.44 g/m*3 16.1 C 0 km/h
327 26-09-2010 17:22:01 15.6 C 6.38 g/m*3 15.6 C 0 km/h
328 26-09-2010 17:34:02 15.4 C 6.7 g/m*3 15.4 C 0 km/h
329 26-09-2010 17:46:01 14.6 C 6.76 g/m*3 14.6 C 0 km/h
330 26-09-2010 17:58:01 14.2 C 6.72 g/m*3 14.2 C 0 km/h
331 26-09-2010 18:10:02 13.6 C 6.83 g/m*3 13.6 C 0 km/h
332 26-09-2010 18:22:01 13.1 C 6.85 g/m*3 13.1 C 0 km/h
333 26-09-2010 18:34:01 12.9 C 6.99 g/m*3 12.9 C 0 km/h
334 26-09-2010 18:46:01 12.7 C 7.01 g/m*3 12.7 C 0 km/h
335 26-09-2010 18:58:01 12.5 C 7.04 g/m*3 12.5 C 0 km/h
336 26-09-2010 19:10:02 12.4 C 7.1 g/m*3 12.4 C 0 km/h
337 26-09-2010 19:22:01 12.4 C 7.1 g/m*3 12.4 C 0 km/h
338 26-09-2010 19:34:01 12.2 C 7.01 g/m*3 12.2 C 0 km/h
339 26-09-2010 19:46:01 12.1 C 7.18 g/m*3 12.1 C 0 km/h
340 26-09-2010 19:58:01 12.1 C 7.08 g/m*3 12.1 C 0 km/h
341 26-09-2010 20:10:02 12 C 7.25 g/m*3 12 C 0 km/h
342 26-09-2010 20:22:01 11.9 C 7.31 g/m*3 11.9 C 0 km/h
343 26-09-2010 20:34:01 11.7 C 7.22 g/m*3 11.7 C 0 km/h
344 26-09-2010 20:46:01 11.7 C 7.22 g/m*3 11.7 C 0 km/h
345 26-09-2010 20:58:01 11.6 C 7.07 g/m*3 11.6 C 0 km/h
346 26-09-2010 21:10:01 11.6 C 7.07 g/m*3 11.6 C 0 km/h
347 26-09-2010 21:22:01 11.4 C 7.08 g/m*3 11.4 C 0 km/h
348 26-09-2010 21:34:01 11.2 C 7.1 g/m*3 11.2 C 0 km/h
349 26-09-2010 21:46:01 10.9 C 7.16 g/m*3 10.9 C 0 km/h
350 26-09-2010 21:58:01 10.7 C 7.17 g/m*3 10.7 C 0 km/h
Sensor: Nr:Datum:Temp:Abs-Feuchte:Windchill:Wind:
Aussen-T/F 351 26-09-2010 22:10:01 10.3 C 6.99 g/m*3 10.3 C 0 km/h
352 26-09-2010 22:22:01 10 C 7.05 g/m*3 10 C 0 km/h
353 26-09-2010 22:34:01 9.7 C 7.1 g/m*3 9.7 C 0 km/h
354 26-09-2010 22:47:04 9.3 C 7.1 g/m*3 9.3 C 0 km/h
355 26-09-2010 22:59:04 9.2 C 7.05 g/m*3 9.2 C 0 km/h
356 26-09-2010 23:11:04 9 C 7.05 g/m*3 9 C 0 km/h
357 26-09-2010 23:23:04 8.9 C 7.18 g/m*3 8.9 C 0 km/h
358 26-09-2010 23:35:04 8.9 C 7.27 g/m*3 8.9 C 0 km/h
359 26-09-2010 23:47:04 8.8 C 7.22 g/m*3 8.8 C 0 km/h
360 26-09-2010 23:59:04 8.6 C 7.13 g/m*3 8.6 C 0 km/h
361 27-09-2010 00:11:04 8.5 C 7.17 g/m*3 8.5 C 0 km/h
362 27-09-2010 00:23:04 8.2 C 7.03 g/m*3 8.2 C 0 km/h
363 27-09-2010 00:35:04 8.1 C 6.99 g/m*3 8.1 C 0 km/h
364 27-09-2010 00:47:04 7.9 C 6.98 g/m*3 7.9 C 0 km/h
365 27-09-2010 00:59:04 7.9 C 7.15 g/m*3 7.9 C 0 km/h
366 27-09-2010 01:11:04 7.8 C 7.18 g/m*3 7.8 C 0 km/h
367 27-09-2010 01:23:04 7.6 C 7.09 g/m*3 7.6 C 0 km/h
368 27-09-2010 01:35:04 7.5 C 7.04 g/m*3 7.5 C 0 km/h
369 27-09-2010 01:47:04 7.3 C 6.95 g/m*3 7.3 C 0 km/h
370 27-09-2010 01:59:04 7.1 C 6.94 g/m*3 7.1 C 0 km/h
371 27-09-2010 02:11:04 7 C 6.9 g/m*3 7 C 0 km/h
372 27-09-2010 02:23:04 7 C 6.9 g/m*3 7 C 0 km/h
373 27-09-2010 02:35:05 6.8 C 6.81 g/m*3 6.8 C 0 km/h
374 27-09-2010 02:47:05 6.7 C 6.84 g/m*3 6.7 C 0 km/h
375 27-09-2010 02:59:05 6.7 C 6.84 g/m*3 6.7 C 0 km/h
Sensor: Nr:Datum:Temp:Abs-Feuchte:Windchill:Wind:
Aussen-T/F 376 27-09-2010 03:11:05 6.5 C 6.75 g/m*3 6.5 C 0 km/h
377 27-09-2010 03:23:05 6.7 C 6.84 g/m*3 6.7 C 0 km/h
378 27-09-2010 03:35:05 6.4 C 6.71 g/m*3 6.4 C 0 km/h
379 27-09-2010 03:47:05 6.3 C 6.66 g/m*3 6.3 C 0 km/h
380 27-09-2010 03:59:05 6.4 C 6.78 g/m*3 6.4 C 0 km/h
381 27-09-2010 04:11:05 6.5 C 6.9 g/m*3 6.5 C 0 km/h
382 27-09-2010 04:23:05 6.4 C 6.85 g/m*3 6.4 C 0 km/h
383 27-09-2010 04:35:05 6.3 C 6.81 g/m*3 6.3 C 0 km/h
384 27-09-2010 04:47:05 6.1 C 6.72 g/m*3 6.1 C 0 km/h
385 27-09-2010 04:59:05 5.9 C 6.71 g/m*3 5.9 C 0 km/h
386 27-09-2010 05:11:05 5.9 C 6.71 g/m*3 5.9 C 0 km/h
387 27-09-2010 05:23:05 6.1 C 6.72 g/m*3 6.1 C 0 km/h
388 27-09-2010 05:35:05 6.3 C 6.81 g/m*3 6.3 C 0 km/h
389 27-09-2010 05:47:05 6.4 C 6.93 g/m*3 6.4 C 0 km/h
390 27-09-2010 05:59:05 6.5 C 6.97 g/m*3 6.5 C 0 km/h
391 27-09-2010 06:11:05 6.5 C 6.97 g/m*3 6.5 C 0 km/h
392 27-09-2010 06:23:05 6.4 C 6.93 g/m*3 6.4 C 0 km/h
393 27-09-2010 06:35:05 6.2 C 6.84 g/m*3 6.2 C 0 km/h
394 27-09-2010 06:47:06 6.2 C 6.84 g/m*3 6.2 C 0 km/h
395 27-09-2010 06:59:06 6.3 C 6.88 g/m*3 6.3 C 0 km/h
396 27-09-2010 07:11:04 6.3 C 6.88 g/m*3 6.3 C 0 km/h
397 27-09-2010 07:23:04 6.6 C 7.02 g/m*3 6.6 C 0 km/h
398 27-09-2010 07:35:04 6.7 C 7.14 g/m*3 6.7 C 0 km/h
399 27-09-2010 07:47:02 6.9 C 7.24 g/m*3 6.9 C 0 km/h
400 27-09-2010 07:59:02 7.2 C 7.38 g/m*3 7.2 C 0 km/h
Sensor: Nr:Datum:Temp:Abs-Feuchte:Windchill:Wind:
Aussen-T/F 401 27-09-2010 08:11:02 7.5 C 7.52 g/m*3 7.5 C 0 km/h
402 27-09-2010 08:23:02 7.5 C 7.52 g/m*3 7.5 C 0 km/h
403 27-09-2010 08:35:02 7.6 C 7.57 g/m*3 7.6 C 0 km/h
404 27-09-2010 08:47:02 7.8 C 7.67 g/m*3 7.8 C 0 km/h
405 27-09-2010 08:59:02 8.1 C 7.74 g/m*3 8.1 C 0 km/h
406 27-09-2010 09:11:02 8.5 C 7.94 g/m*3 8.5 C 0 km/h
407 27-09-2010 09:23:02 8.8 C 8.09 g/m*3 8.8 C 0 km/h
408 27-09-2010 09:35:02 9.2 C 8.22 g/m*3 9.2 C 0 km/h
409 27-09-2010 09:47:01 9.6 C 8.34 g/m*3 9.6 C 0 km/h
410 27-09-2010 09:59:01 10.1 C 8.42 g/m*3 10.1 C 0 km/h
411 27-09-2010 10:11:02 10.4 C 8.29 g/m*3 10.4 C 0 km/h
412 27-09-2010 10:23:01 10.4 C 7.9 g/m*3 10.4 C 0 km/h
413 27-09-2010 10:35:02 10.8 C 7.51 g/m*3 10.8 C 0 km/h
414 27-09-2010 10:47:01 11 C 7.11 g/m*3 11 C 0 km/h
415 27-09-2010 10:59:01 11.2 C 6.99 g/m*3 11.2 C 0 km/h
416 27-09-2010 11:11:02 11.7 C 7.01 g/m*3 11.7 C 0 km/h
417 27-09-2010 11:23:01 11.8 C 6.74 g/m*3 11.8 C 0 km/h
418 27-09-2010 11:35:02 12.2 C 6.8 g/m*3 12.2 C 0 km/h
419 27-09-2010 11:47:01 12 C 6.61 g/m*3 12 C 0 km/h
420 27-09-2010 11:59:01 12.2 C 6.8 g/m*3 12.2 C 0 km/h
421 27-09-2010 12:11:02 12.4 C 6.77 g/m*3 12.4 C 0 km/h
422 27-09-2010 12:23:01 12.8 C 6.94 g/m*3 12.8 C 0 km/h
423 27-09-2010 12:35:02 12.8 C 6.83 g/m*3 12.8 C 0 km/h
424 27-09-2010 12:47:01 13 C 6.8 g/m*3 13 C 0 km/h
425 27-09-2010 12:59:01 12.9 C 6.76 g/m*3 12.9 C 0 km/h
Sensor: Nr:Datum:Temp:Abs-Feuchte:Windchill:Wind:
Aussen-T/F 426 27-09-2010 13:11:02 13.1 C 6.73 g/m*3 13.1 C 0 km/h
427 27-09-2010 13:23:02 13.4 C 6.97 g/m*3 13.4 C 0 km/h
428 27-09-2010 13:35:01 13.6 C 6.71 g/m*3 13.6 C 0 km/h
429 27-09-2010 13:47:02 13.6 C 6.71 g/m*3 13.6 C 0 km/h
430 27-09-2010 13:59:02 13.7 C 6.51 g/m*3 13.7 C 0 km/h
431 27-09-2010 14:11:01 13.4 C 6.51 g/m*3 13.4 C 0 km/h
432 27-09-2010 14:23:02 13.3 C 6.7 g/m*3 13.3 C 0 km/h
433 27-09-2010 14:35:01 13.4 C 6.74 g/m*3 13.4 C 0 km/h
434 27-09-2010 14:47:03 13.2 C 6.77 g/m*3 13.2 C 0 km/h
435 27-09-2010 14:59:03 13 C 6.58 g/m*3 13 C 0 km/h
436 27-09-2010 15:11:02 13.4 C 6.74 g/m*3 13.4 C 0 km/h
437 27-09-2010 15:23:02 13.6 C 6.59 g/m*3 13.6 C 0 km/h
438 27-09-2010 15:35:02 13.6 C 6.47 g/m*3 13.6 C 0 km/h
439 27-09-2010 15:47:02 13.2 C 6.66 g/m*3 13.2 C 0 km/h
440 27-09-2010 15:59:02 13.2 C 6.77 g/m*3 13.2 C 0 km/h
441 27-09-2010 16:11:01 13.4 C 6.97 g/m*3 13.4 C 0 km/h
442 27-09-2010 16:23:02 13.4 C 7.44 g/m*3 13.4 C 0 km/h
443 27-09-2010 16:35:02 13.4 C 7.44 g/m*3 13.4 C 0 km/h
444 27-09-2010 16:47:01 13.3 C 7.05 g/m*3 13.3 C 0 km/h
445 27-09-2010 16:59:01 13.4 C 7.09 g/m*3 13.4 C 0 km/h
446 27-09-2010 17:11:01 13.2 C 7.58 g/m*3 13.2 C 0 km/h
447 27-09-2010 17:23:01 13 C 7.6 g/m*3 13 C 0 km/h
448 27-09-2010 17:35:02 12.8 C 7.73 g/m*3 12.8 C 0 km/h
449 27-09-2010 17:47:02 12.8 C 7.84 g/m*3 12.8 C 0 km/h
450 27-09-2010 17:59:02 12.7 C 7.68 g/m*3 12.7 C 0 km/h
Sensor: Nr:Datum:Temp:Abs-Feuchte:Windchill:Wind:
Aussen-T/F 451 27-09-2010 18:11:02 12.5 C 7.59 g/m*3 12.5 C 0 km/h
452 27-09-2010 18:23:01 12.3 C 7.71 g/m*3 12.3 C 0 km/h
453 27-09-2010 18:35:02 11.9 C 7.73 g/m*3 11.9 C 0 km/h
454 27-09-2010 18:47:02 11.7 C 7.74 g/m*3 11.7 C 0 km/h
455 27-09-2010 18:59:02 11.3 C 7.85 g/m*3 11.3 C 0 km/h
456 27-09-2010 19:11:02 10.8 C 8.01 g/m*3 10.8 C 0 km/h
457 27-09-2010 19:23:02 10.7 C 8.15 g/m*3 10.7 C 0 km/h
458 27-09-2010 19:35:02 10.5 C 8.15 g/m*3 10.5 C 0 km/h
459 27-09-2010 19:47:02 10.5 C 8.15 g/m*3 10.5 C 0 km/h
460 27-09-2010 19:59:02 10.4 C 8.19 g/m*3 10.4 C 0 km/h
461 27-09-2010 20:11:02 10.3 C 8.24 g/m*3 10.3 C 0 km/h
462 27-09-2010 20:23:02 10.3 C 8.33 g/m*3 10.3 C 0 km/h
463 27-09-2010 20:35:02 10.3 C 8.43 g/m*3 10.3 C 0 km/h
464 27-09-2010 20:47:01 10.3 C 8.43 g/m*3 10.3 C 0 km/h
465 27-09-2010 20:59:01 10.3 C 8.52 g/m*3 10.3 C 0 km/h
466 27-09-2010 21:11:02 10.4 C 8.58 g/m*3 10.4 C 0 km/h
467 27-09-2010 21:23:01 10.2 C 8.47 g/m*3 10.2 C 0 km/h
468 27-09-2010 21:35:02 10.3 C 8.52 g/m*3 10.3 C 0 km/h
469 27-09-2010 21:47:02 10.4 C 8.58 g/m*3 10.4 C 0 km/h
470 27-09-2010 21:59:03 10.4 C 8.58 g/m*3 10.4 C 0 km/h
471 27-09-2010 22:11:02 10.4 C 8.58 g/m*3 10.4 C 0 km/h
472 27-09-2010 22:24:10 10.4 C 8.67 g/m*3 10.4 C 0 km/h
473 27-09-2010 22:36:10 10.2 C 8.56 g/m*3 10.2 C 0 km/h
474 27-09-2010 22:48:10 10.2 C 8.56 g/m*3 10.2 C 0 km/h
475 27-09-2010 23:00:10 10.2 C 8.56 g/m*3 10.2 C 0 km/h
Sensor: Nr:Datum:Temp:Abs-Feuchte:Windchill:Wind:
Aussen-T/F 476 27-09-2010 23:12:10 10.2 C 8.66 g/m*3 10.2 C 0 km/h
477 27-09-2010 23:24:10 10.2 C 8.66 g/m*3 10.2 C 0 km/h
478 27-09-2010 23:36:10 10.1 C 8.61 g/m*3 10.1 C 0 km/h
479 27-09-2010 23:48:10 10.1 C 8.7 g/m*3 10.1 C 0 km/h
480 28-09-2010 00:00:10 10.1 C 8.7 g/m*3 10.1 C 0 km/h
481 28-09-2010 00:12:10 10 C 8.64 g/m*3 10 C 0 km/h
482 28-09-2010 00:24:10 10 C 8.64 g/m*3 10 C 0 km/h
483 28-09-2010 00:36:10 10 C 8.64 g/m*3 10 C 0 km/h
484 28-09-2010 00:48:10 9.9 C 8.78 g/m*3 9.9 C 0 km/h
485 28-09-2010 01:00:10 10 C 8.74 g/m*3 10 C 0 km/h
486 28-09-2010 01:12:11 10 C 8.74 g/m*3 10 C 0 km/h
487 28-09-2010 01:24:11 10 C 8.74 g/m*3 10 C 0 km/h
488 28-09-2010 01:36:11 10 C 8.74 g/m*3 10 C 0 km/h
489 28-09-2010 01:48:11 9.9 C 8.78 g/m*3 9.9 C 0 km/h
490 28-09-2010 02:00:11 9.9 C 8.78 g/m*3 9.9 C 0 km/h
491 28-09-2010 02:12:11 9.9 C 8.78 g/m*3 9.9 C 0 km/h
492 28-09-2010 02:24:11 9.9 C 8.78 g/m*3 9.9 C 0 km/h
493 28-09-2010 02:36:11 9.9 C 8.78 g/m*3 9.9 C 0 km/h
494 28-09-2010 02:48:11 9.9 C 8.78 g/m*3 9.9 C 0 km/h
495 28-09-2010 03:00:11 9.9 C 8.87 g/m*3 9.9 C 0 km/h
496 28-09-2010 03:12:11 9.9 C 8.87 g/m*3 9.9 C 0 km/h
497 28-09-2010 03:24:11 9.9 C 8.87 g/m*3 9.9 C 0 km/h
498 28-09-2010 03:36:12 9.9 C 8.87 g/m*3 9.9 C 0 km/h
499 28-09-2010 03:48:12 9.9 C 8.87 g/m*3 9.9 C 0 km/h
500 28-09-2010 04:00:12 9.9 C 8.87 g/m*3 9.9 C 0 km/h
Sensor: Nr:Datum:Temp:Abs-Feuchte:Windchill:Wind:
Aussen-T/F 501 28-09-2010 04:12:12 9.9 C 8.87 g/m*3 9.9 C 0 km/h
502 28-09-2010 04:24:12 9.9 C 8.87 g/m*3 9.9 C 0 km/h
503 28-09-2010 04:36:12 9.9 C 8.87 g/m*3 9.9 C 0 km/h
504 28-09-2010 04:48:12 10 C 8.83 g/m*3 10 C 0 km/h
505 28-09-2010 05:00:12 10 C 8.93 g/m*3 10 C 0 km/h
506 28-09-2010 05:12:12 10 C 8.93 g/m*3 10 C 0 km/h
507 28-09-2010 05:24:12 10 C 8.93 g/m*3 10 C 0 km/h
508 28-09-2010 05:36:12 10 C 8.93 g/m*3 10 C 0 km/h
509 28-09-2010 05:48:12 10 C 8.93 g/m*3 10 C 0 km/h
510 28-09-2010 06:00:12 10.1 C 8.98 g/m*3 10.1 C 0 km/h
511 28-09-2010 06:12:12 10.1 C 8.98 g/m*3 10.1 C 0 km/h
512 28-09-2010 06:24:12 10.1 C 8.98 g/m*3 10.1 C 0 km/h
513 28-09-2010 06:36:12 10.1 C 8.98 g/m*3 10.1 C 0 km/h
514 28-09-2010 06:48:12 10 C 8.93 g/m*3 10 C 0 km/h
515 28-09-2010 07:00:12 10 C 8.93 g/m*3 10 C 0 km/h
516 28-09-2010 07:12:12 10 C 8.93 g/m*3 10 C 0 km/h
517 28-09-2010 07:24:12 10 C 8.93 g/m*3 10 C 0 km/h
518 28-09-2010 07:36:13 10 C 8.93 g/m*3 10 C 0 km/h
519 28-09-2010 07:48:01 10 C 8.93 g/m*3 10 C 0 km/h
520 28-09-2010 08:00:01 10 C 8.93 g/m*3 10 C 0 km/h
521 28-09-2010 08:12:02 10 C 8.93 g/m*3 10 C 0 km/h
522 28-09-2010 08:24:02 10 C 8.93 g/m*3 10 C 0 km/h
523 28-09-2010 08:36:02 10.1 C 8.98 g/m*3 10.1 C 0 km/h
524 28-09-2010 08:48:03 10.1 C 8.98 g/m*3 10.1 C 0 km/h
525 28-09-2010 09:00:03 10.1 C 8.98 g/m*3 10.1 C 0 km/h
Sensor: Nr:Datum:Temp:Abs-Feuchte:Windchill:Wind:
Aussen-T/F 526 28-09-2010 09:12:03 10.2 C 9.04 g/m*3 10.2 C 0 km/h
527 28-09-2010 09:24:02 10.2 C 9.04 g/m*3 10.2 C 0 km/h
528 28-09-2010 09:36:02 10.3 C 9.1 g/m*3 10.3 C 0 km/h
529 28-09-2010 09:48:02 10.4 C 9.16 g/m*3 10.4 C 0 km/h
530 28-09-2010 10:00:02 10.4 C 9.16 g/m*3 10.4 C 0 km/h
531 28-09-2010 10:12:02 10.5 C 9.21 g/m*3 10.5 C 0 km/h
532 28-09-2010 10:24:01 10.5 C 9.21 g/m*3 10.5 C 0 km/h
533 28-09-2010 10:36:02 10.7 C 9.33 g/m*3 10.7 C 0 km/h
534 28-09-2010 10:48:02 10.8 C 9.39 g/m*3 10.8 C 0 km/h
535 28-09-2010 11:00:02 11 C 9.51 g/m*3 11 C 0 km/h
536 28-09-2010 11:12:02 11 C 9.51 g/m*3 11 C 0 km/h
537 28-09-2010 11:24:02 11.2 C 9.63 g/m*3 11.2 C 0 km/h
538 28-09-2010 11:36:02 11.3 C 9.69 g/m*3 11.3 C 0 km/h
539 28-09-2010 11:48:02 11.4 C 9.75 g/m*3 11.4 C 0 km/h
540 28-09-2010 12:00:02 11.4 C 9.75 g/m*3 11.4 C 0 km/h
541 28-09-2010 12:12:02 11.4 C 9.65 g/m*3 11.4 C 0 km/h
542 28-09-2010 12:24:02 11.4 C 9.65 g/m*3 11.4 C 0 km/h
543 28-09-2010 12:36:02 11.5 C 9.71 g/m*3 11.5 C 0 km/h
544 28-09-2010 12:48:02 11.7 C 9.83 g/m*3 11.7 C 0 km/h
545 28-09-2010 13:00:02 11.6 C 9.67 g/m*3 11.6 C 0 km/h
546 28-09-2010 13:12:02 11.6 C 9.67 g/m*3 11.6 C 0 km/h
547 28-09-2010 13:24:03 11.8 C 9.79 g/m*3 11.8 C 0 km/h
548 28-09-2010 13:36:02 11.8 C 9.68 g/m*3 11.8 C 0 km/h
549 28-09-2010 13:48:03 11.9 C 9.74 g/m*3 11.9 C 0 km/h
550 28-09-2010 14:00:03 11.9 C 9.74 g/m*3 11.9 C 0 km/h
Sensor: Nr:Datum:Temp:Abs-Feuchte:Windchill:Wind:
Aussen-T/F 551 28-09-2010 14:12:02 11.8 C 9.68 g/m*3 11.8 C 0 km/h
552 28-09-2010 14:24:02 11.7 C 9.62 g/m*3 11.7 C 0 km/h
553 28-09-2010 14:36:02 11.7 C 9.62 g/m*3 11.7 C 0 km/h
554 28-09-2010 14:48:02 11.7 C 9.62 g/m*3 11.7 C 0 km/h
555 28-09-2010 15:00:02 11.7 C 9.62 g/m*3 11.7 C 0 km/h
556 28-09-2010 15:12:02 11.7 C 9.73 g/m*3 11.7 C 0 km/h
557 28-09-2010 15:24:02 11.7 C 9.73 g/m*3 11.7 C 0 km/h
558 28-09-2010 15:36:02 11.8 C 9.79 g/m*3 11.8 C 0 km/h
559 28-09-2010 15:48:02 11.8 C 9.79 g/m*3 11.8 C 0 km/h
560 28-09-2010 16:00:02 11.8 C 9.79 g/m*3 11.8 C 0 km/h
561 28-09-2010 16:12:01 11.8 C 9.79 g/m*3 11.8 C 0 km/h
562 28-09-2010 16:24:01 11.8 C 9.79 g/m*3 11.8 C 0 km/h
563 28-09-2010 16:36:02 11.9 C 9.96 g/m*3 11.9 C 0 km/h
564 28-09-2010 16:48:02 11.9 C 9.96 g/m*3 11.9 C 0 km/h
565 28-09-2010 17:00:02 11.9 C 9.96 g/m*3 11.9 C 0 km/h
566 28-09-2010 17:12:02 12 C 10.02 g/m*3 12 C 0 km/h
567 28-09-2010 17:24:02 12 C 10.02 g/m*3 12 C 0 km/h
568 28-09-2010 17:36:02 12 C 10.02 g/m*3 12 C 0 km/h
569 28-09-2010 17:48:02 12 C 10.02 g/m*3 12 C 0 km/h
570 28-09-2010 18:00:02 11.9 C 9.96 g/m*3 11.9 C 0 km/h
571 28-09-2010 18:12:02 11.9 C 9.96 g/m*3 11.9 C 0 km/h
572 28-09-2010 18:24:02 11.9 C 10.06 g/m*3 11.9 C 0 km/h
573 28-09-2010 18:36:02 11.8 C 10 g/m*3 11.8 C 0 km/h
574 28-09-2010 18:48:01 11.8 C 10 g/m*3 11.8 C 0 km/h
575 28-09-2010 19:00:01 11.8 C 10 g/m*3 11.8 C 0 km/h
Sensor: Nr:Datum:Temp:Abs-Feuchte:Windchill:Wind:
Aussen-T/F 576 28-09-2010 19:12:02 11.7 C 9.94 g/m*3 11.7 C 0 km/h
577 28-09-2010 19:24:01 11.7 C 9.94 g/m*3 11.7 C 0 km/h
578 28-09-2010 19:36:01 11.7 C 9.94 g/m*3 11.7 C 0 km/h
579 28-09-2010 19:48:01 11.7 C 9.94 g/m*3 11.7 C 0 km/h
580 28-09-2010 20:00:01 11.6 C 9.87 g/m*3 11.6 C 0 km/h
581 28-09-2010 20:12:02 11.6 C 9.87 g/m*3 11.6 C 0 km/h
582 28-09-2010 20:24:02 11.6 C 9.87 g/m*3 11.6 C 0 km/h
583 28-09-2010 20:36:01 11.6 C 9.87 g/m*3 11.6 C 0 km/h
584 28-09-2010 20:48:01 11.6 C 9.87 g/m*3 11.6 C 0 km/h
585 28-09-2010 21:00:01 11.6 C 9.87 g/m*3 11.6 C 0 km/h
586 28-09-2010 21:12:01 11.6 C 9.87 g/m*3 11.6 C 0 km/h
587 28-09-2010 21:24:02 11.6 C 9.87 g/m*3 11.6 C 0 km/h
588 28-09-2010 21:36:01 11.5 C 9.81 g/m*3 11.5 C 0 km/h
589 28-09-2010 21:48:03 11.6 C 9.87 g/m*3 11.6 C 0 km/h
590 28-09-2010 22:00:03 11.6 C 9.87 g/m*3 11.6 C 0 km/h
591 28-09-2010 22:12:02 11.6 C 9.87 g/m*3 11.6 C 0 km/h
592 28-09-2010 22:24:03 11.6 C 9.87 g/m*3 11.6 C 0 km/h
593 28-09-2010 22:36:02 11.7 C 9.94 g/m*3 11.7 C 0 km/h
594 28-09-2010 22:48:03 11.6 C 9.87 g/m*3 11.6 C 0 km/h
595 28-09-2010 23:00:03 11.6 C 9.87 g/m*3 11.6 C 0 km/h
596 28-09-2010 23:12:02 11.6 C 9.87 g/m*3 11.6 C 0 km/h
597 28-09-2010 23:24:02 11.6 C 9.87 g/m*3 11.6 C 0 km/h
598 28-09-2010 23:36:02 11.6 C 9.87 g/m*3 11.6 C 0 km/h
599 28-09-2010 23:48:02 11.6 C 9.87 g/m*3 11.6 C 0 km/h
600 29-09-2010 00:00:02 11.6 C 9.87 g/m*3 11.6 C 0 km/h
Sensor: Nr:Datum:Temp:Abs-Feuchte:Windchill:Wind:
Aussen-T/F 601 29-09-2010 00:12:02 11.7 C 9.94 g/m*3 11.7 C 0 km/h
602 29-09-2010 00:24:02 11.6 C 9.87 g/m*3 11.6 C 0 km/h
603 29-09-2010 00:36:02 11.7 C 9.94 g/m*3 11.7 C 0 km/h
604 29-09-2010 00:48:02 11.6 C 9.87 g/m*3 11.6 C 0 km/h
605 29-09-2010 01:00:02 11.7 C 9.94 g/m*3 11.7 C 0 km/h
606 29-09-2010 01:12:03 11.6 C 9.87 g/m*3 11.6 C 0 km/h
607 29-09-2010 01:24:02 11.6 C 9.87 g/m*3 11.6 C 0 km/h
608 29-09-2010 01:36:02 11.6 C 9.87 g/m*3 11.6 C 0 km/h
609 29-09-2010 01:48:01 11.6 C 9.87 g/m*3 11.6 C 0 km/h
610 29-09-2010 02:00:01 11.6 C 9.87 g/m*3 11.6 C 0 km/h
611 29-09-2010 02:12:02 11.6 C 9.87 g/m*3 11.6 C 0 km/h
612 29-09-2010 02:24:01 11.5 C 9.81 g/m*3 11.5 C 0 km/h
613 29-09-2010 02:36:02 11.5 C 9.81 g/m*3 11.5 C 0 km/h
614 29-09-2010 02:48:01 11.6 C 9.87 g/m*3 11.6 C 0 km/h
615 29-09-2010 03:00:01 11.4 C 9.75 g/m*3 11.4 C 0 km/h
616 29-09-2010 03:12:01 11.3 C 9.69 g/m*3 11.3 C 0 km/h
617 29-09-2010 03:24:02 11.4 C 9.75 g/m*3 11.4 C 0 km/h
618 29-09-2010 03:36:01 11.7 C 9.94 g/m*3 11.7 C 0 km/h
619 29-09-2010 03:48:01 11.6 C 9.87 g/m*3 11.6 C 0 km/h
620 29-09-2010 04:00:01 11.6 C 9.87 g/m*3 11.6 C 0 km/h
621 29-09-2010 04:12:02 11.6 C 9.87 g/m*3 11.6 C 0 km/h
622 29-09-2010 04:24:01 11.6 C 9.87 g/m*3 11.6 C 0 km/h
623 29-09-2010 04:36:01 11.3 C 9.69 g/m*3 11.3 C 0 km/h
624 29-09-2010 04:48:01 11.3 C 9.69 g/m*3 11.3 C 0 km/h
625 29-09-2010 05:00:01 11.4 C 9.75 g/m*3 11.4 C 0 km/h
Sensor: Nr:Datum:Temp:Abs-Feuchte:Windchill:Wind:
Aussen-T/F 626 29-09-2010 05:12:02 11.4 C 9.75 g/m*3 11.4 C 0 km/h
627 29-09-2010 05:24:01 11.4 C 9.75 g/m*3 11.4 C 0 km/h
628 29-09-2010 05:36:01 11.4 C 9.75 g/m*3 11.4 C 0 km/h
629 29-09-2010 05:48:01 11.4 C 9.75 g/m*3 11.4 C 0 km/h
630 29-09-2010 06:00:01 11.7 C 9.94 g/m*3 11.7 C 0 km/h
631 29-09-2010 06:12:01 11.6 C 9.87 g/m*3 11.6 C 0 km/h
632 29-09-2010 06:24:02 11.5 C 9.81 g/m*3 11.5 C 0 km/h
633 29-09-2010 06:36:01 11.5 C 9.81 g/m*3 11.5 C 0 km/h
634 29-09-2010 06:48:02 11.3 C 9.69 g/m*3 11.3 C 0 km/h
635 29-09-2010 07:00:02 11.1 C 9.57 g/m*3 11.1 C 0 km/h
636 29-09-2010 07:12:01 10.8 C 9.39 g/m*3 10.8 C 0 km/h
637 29-09-2010 07:24:02 11 C 9.51 g/m*3 11 C 0 km/h
638 29-09-2010 07:36:01 11.2 C 9.63 g/m*3 11.2 C 0 km/h
639 29-09-2010 07:48:02 11.1 C 9.57 g/m*3 11.1 C 0 km/h
640 29-09-2010 08:00:02 11 C 9.51 g/m*3 11 C 0 km/h
641 29-09-2010 08:12:01 11.2 C 9.63 g/m*3 11.2 C 0 km/h
642 29-09-2010 08:24:01 11.2 C 9.63 g/m*3 11.2 C 0 km/h
643 29-09-2010 08:36:01 11.1 C 9.57 g/m*3 11.1 C 0 km/h
644 29-09-2010 08:48:02 11.4 C 9.75 g/m*3 11.4 C 0 km/h
645 29-09-2010 09:00:02 11.6 C 9.87 g/m*3 11.6 C 0 km/h
646 29-09-2010 09:12:01 11.2 C 9.53 g/m*3 11.2 C 0 km/h
647 29-09-2010 09:24:01 10.8 C 9.19 g/m*3 10.8 C 0 km/h
648 29-09-2010 09:36:02 11.7 C 9.62 g/m*3 11.7 C 0 km/h
649 29-09-2010 09:48:01 11.9 C 9.64 g/m*3 11.9 C 0 km/h
650 29-09-2010 10:00:01 12.1 C 9.22 g/m*3 12.1 C 0 km/h
Sensor: Nr:Datum:Temp:Abs-Feuchte:Windchill:Wind:
Aussen-T/F 651 29-09-2010 10:12:02 12.5 C 8.91 g/m*3 12.5 C 0 km/h
652 29-09-2010 10:24:01 12.9 C 8.79 g/m*3 12.9 C 0 km/h
653 29-09-2010 10:36:02 13.4 C 8.95 g/m*3 13.4 C 0 km/h
654 29-09-2010 10:48:01 13.7 C 9 g/m*3 13.7 C 0 km/h
655 29-09-2010 11:00:01 13.8 C 8.94 g/m*3 13.8 C 0 km/h
656 29-09-2010 11:12:02 13.7 C 8.53 g/m*3 13.7 C 0 km/h
657 29-09-2010 11:24:01 13.8 C 8.46 g/m*3 13.8 C 0 km/h
658 29-09-2010 11:36:01 14.1 C 8.01 g/m*3 14.1 C 0 km/h
659 29-09-2010 11:48:01 14.4 C 8.16 g/m*3 14.4 C 0 km/h
660 29-09-2010 12:00:01 14.5 C 8.21 g/m*3 14.5 C 0 km/h
661 29-09-2010 12:12:01 14.6 C 8.01 g/m*3 14.6 C 0 km/h
662 29-09-2010 12:24:01 14.1 C 7.52 g/m*3 14.1 C 0 km/h
663 29-09-2010 12:36:01 14 C 8.08 g/m*3 14 C 0 km/h
664 29-09-2010 12:48:01 14.8 C 8.36 g/m*3 14.8 C 0 km/h
665 29-09-2010 13:00:01 15.4 C 8.15 g/m*3 15.4 C 0 km/h
666 29-09-2010 13:12:01 15.7 C 7.89 g/m*3 15.7 C 0 km/h
667 29-09-2010 13:24:02 15.8 C 7.81 g/m*3 15.8 C 0 km/h
668 29-09-2010 13:36:01 15.9 C 7.99 g/m*3 15.9 C 0 km/h
669 29-09-2010 13:48:02 15.9 C 7.58 g/m*3 15.9 C 0 km/h
670 29-09-2010 14:00:02 16.3 C 7.35 g/m*3 16.3 C 0 km/h
671 29-09-2010 14:12:01 15.6 C 7.58 g/m*3 15.6 C 0 km/h
672 29-09-2010 14:24:02 15.8 C 7.94 g/m*3 15.8 C 0 km/h
673 29-09-2010 14:36:01 17.4 C 7.85 g/m*3 17.4 C 0 km/h
674 29-09-2010 14:48:02 19 C 7.33 g/m*3 19 C 0 km/h
675 29-09-2010 15:00:02 18.8 C 6.76 g/m*3 18.8 C 0 km/h
Sensor: Nr:Datum:Temp:Abs-Feuchte:Windchill:Wind:
Aussen-T/F 676 29-09-2010 15:12:01 18.8 C 6.93 g/m*3 18.8 C 0 km/h
677 29-09-2010 15:24:01 18.9 C 6.97 g/m*3 18.9 C 0 km/h
678 29-09-2010 15:36:02 19.6 C 6.92 g/m*3 19.6 C 0 km/h
679 29-09-2010 15:48:01 19.7 C 6.79 g/m*3 19.7 C 0 km/h
680 29-09-2010 16:00:02 18.8 C 7.41 g/m*3 18.8 C 0 km/h
681 29-09-2010 16:12:01 18.1 C 7.26 g/m*3 18.1 C 0 km/h
682 29-09-2010 16:24:01 18.1 C 7.57 g/m*3 18.1 C 0 km/h
683 29-09-2010 16:36:02 17.6 C 7.95 g/m*3 17.6 C 0 km/h
684 29-09-2010 16:48:01 18.1 C 7.88 g/m*3 18.1 C 0 km/h
685 29-09-2010 17:00:02 19 C 7.33 g/m*3 19 C 0 km/h
686 29-09-2010 17:12:01 19.4 C 7.01 g/m*3 19.4 C 0 km/h
687 29-09-2010 17:24:01 18.6 C 7.16 g/m*3 18.6 C 0 km/h
688 29-09-2010 17:36:02 17.6 C 7.95 g/m*3 17.6 C 0 km/h
689 29-09-2010 17:48:01 16.9 C 8.05 g/m*3 16.9 C 0 km/h
690 29-09-2010 18:00:01 15.9 C 7.58 g/m*3 15.9 C 0 km/h
691 29-09-2010 18:12:04 15.2 C 7.92 g/m*3 15.2 C 0 km/h
692 29-09-2010 18:24:02 14.4 C 7.91 g/m*3 14.4 C 0 km/h
693 29-09-2010 18:36:02 14 C 7.84 g/m*3 14 C 0 km/h
694 29-09-2010 18:48:01 13.6 C 7.89 g/m*3 13.6 C 0 km/h
695 29-09-2010 19:00:01 13.2 C 7.81 g/m*3 13.2 C 0 km/h
696 29-09-2010 19:12:01 13.1 C 7.76 g/m*3 13.1 C 0 km/h
697 29-09-2010 19:24:01 13 C 7.71 g/m*3 13 C 0 km/h
698 29-09-2010 19:36:02 13 C 7.6 g/m*3 13 C 0 km/h
699 29-09-2010 19:48:01 13.1 C 7.53 g/m*3 13.1 C 0 km/h
700 29-09-2010 20:00:01 13.3 C 7.63 g/m*3 13.3 C 0 km/h
Sensor: Nr:Datum:Temp:Abs-Feuchte:Windchill:Wind:
Aussen-T/F 701 29-09-2010 20:12:02 13.2 C 7.81 g/m*3 13.2 C 0 km/h
702 29-09-2010 20:24:01 13.2 C 7.81 g/m*3 13.2 C 0 km/h
703 29-09-2010 20:36:02 13 C 7.6 g/m*3 13 C 0 km/h
704 29-09-2010 20:48:01 12.9 C 7.66 g/m*3 12.9 C 0 km/h
705 29-09-2010 21:00:01 12.9 C 7.66 g/m*3 12.9 C 0 km/h
706 29-09-2010 21:12:02 12.8 C 7.84 g/m*3 12.8 C 0 km/h
707 29-09-2010 21:24:01 12.4 C 7.98 g/m*3 12.4 C 0 km/h
708 29-09-2010 21:38:05 12.2 C 8.09 g/m*3 12.2 C 0 km/h
709 29-09-2010 21:50:05 12.2 C 8.09 g/m*3 12.2 C 0 km/h
710 29-09-2010 22:02:05 12.3 C 8.25 g/m*3 12.3 C 0 km/h
711 29-09-2010 22:14:05 12.4 C 8.3 g/m*3 12.4 C 0 km/h
712 29-09-2010 22:26:05 12.4 C 8.41 g/m*3 12.4 C 0 km/h
713 29-09-2010 22:38:06 12.5 C 8.47 g/m*3 12.5 C 0 km/h
714 29-09-2010 22:50:06 12.3 C 8.36 g/m*3 12.3 C 0 km/h
715 29-09-2010 23:02:06 12 C 8.21 g/m*3 12 C 0 km/h
716 29-09-2010 23:14:06 11.8 C 8.31 g/m*3 11.8 C 0 km/h
717 29-09-2010 23:26:06 11.8 C 8.42 g/m*3 11.8 C 0 km/h
718 29-09-2010 23:38:06 12 C 8.31 g/m*3 12 C 0 km/h
719 29-09-2010 23:50:06 12.2 C 8.42 g/m*3 12.2 C 0 km/h
720 30-09-2010 00:02:06 12.4 C 8.52 g/m*3 12.4 C 0 km/h
721 30-09-2010 00:14:06 12.3 C 8.47 g/m*3 12.3 C 0 km/h
722 30-09-2010 00:26:06 12.1 C 8.36 g/m*3 12.1 C 0 km/h
723 30-09-2010 00:38:06 12.1 C 8.47 g/m*3 12.1 C 0 km/h
724 30-09-2010 00:50:06 11.9 C 8.37 g/m*3 11.9 C 0 km/h
725 30-09-2010 01:02:06 11.7 C 8.37 g/m*3 11.7 C 0 km/h
Sensor: Nr:Datum:Temp:Abs-Feuchte:Windchill:Wind:
Aussen-T/F 726 30-09-2010 01:14:06 11.8 C 7.89 g/m*3 11.8 C 0 km/h
727 30-09-2010 01:26:06 11.8 C 7.79 g/m*3 11.8 C 0 km/h
728 30-09-2010 01:38:06 12 C 7.46 g/m*3 12 C 0 km/h
729 30-09-2010 01:50:06 12 C 7.25 g/m*3 12 C 0 km/h
730 30-09-2010 02:02:06 12.1 C 7.4 g/m*3 12.1 C 0 km/h
731 30-09-2010 02:14:06 11.5 C 7.54 g/m*3 11.5 C 0 km/h
732 30-09-2010 02:26:06 11.4 C 7.7 g/m*3 11.4 C 0 km/h
733 30-09-2010 02:38:06 11.1 C 7.66 g/m*3 11.1 C 0 km/h
734 30-09-2010 02:50:07 11.2 C 7.8 g/m*3 11.2 C 0 km/h
735 30-09-2010 03:02:07 11.3 C 7.85 g/m*3 11.3 C 0 km/h
736 30-09-2010 03:14:07 11.2 C 7.91 g/m*3 11.2 C 0 km/h
737 30-09-2010 03:26:07 11 C 7.81 g/m*3 11 C 0 km/h
738 30-09-2010 03:38:07 11.1 C 7.86 g/m*3 11.1 C 0 km/h
739 30-09-2010 03:50:07 11.2 C 7.91 g/m*3 11.2 C 0 km/h
740 30-09-2010 04:02:07 11.3 C 7.96 g/m*3 11.3 C 0 km/h
741 30-09-2010 04:14:07 11.2 C 7.91 g/m*3 11.2 C 0 km/h
742 30-09-2010 04:26:07 11 C 7.81 g/m*3 11 C 0 km/h
743 30-09-2010 04:38:07 10.8 C 7.81 g/m*3 10.8 C 0 km/h
744 30-09-2010 04:50:07 10.8 C 7.91 g/m*3 10.8 C 0 km/h
745 30-09-2010 05:02:07 10.8 C 7.91 g/m*3 10.8 C 0 km/h
746 30-09-2010 05:14:07 10.8 C 7.91 g/m*3 10.8 C 0 km/h
747 30-09-2010 05:26:07 10.8 C 7.81 g/m*3 10.8 C 0 km/h
748 30-09-2010 05:38:07 10.7 C 7.76 g/m*3 10.7 C 0 km/h
749 30-09-2010 05:50:07 10.7 C 7.56 g/m*3 10.7 C 0 km/h
750 30-09-2010 06:02:07 10.8 C 7.31 g/m*3 10.8 C 0 km/h
Sensor: Nr:Datum:Temp:Abs-Feuchte:Windchill:Wind:
Aussen-T/F 751 30-09-2010 06:14:07 10.8 C 7.31 g/m*3 10.8 C 0 km/h
752 30-09-2010 06:26:07 10.7 C 7.27 g/m*3 10.7 C 0 km/h
753 30-09-2010 06:38:05 10.6 C 7.32 g/m*3 10.6 C 0 km/h
754 30-09-2010 06:50:02 10.6 C 7.42 g/m*3 10.6 C 0 km/h
755 30-09-2010 07:02:02 10.7 C 7.56 g/m*3 10.7 C 0 km/h
756 30-09-2010 07:14:02 10.7 C 7.66 g/m*3 10.7 C 0 km/h
757 30-09-2010 07:26:02 10.6 C 7.61 g/m*3 10.6 C 0 km/h
758 30-09-2010 07:38:02 10.6 C 7.71 g/m*3 10.6 C 0 km/h
759 30-09-2010 07:50:01 10.7 C 7.76 g/m*3 10.7 C 0 km/h
760 30-09-2010 08:02:01 10.7 C 7.66 g/m*3 10.7 C 0 km/h
761 30-09-2010 08:14:02 10.9 C 7.76 g/m*3 10.9 C 0 km/h
762 30-09-2010 08:26:01 10.9 C 7.76 g/m*3 10.9 C 0 km/h
763 30-09-2010 08:38:01 11 C 7.81 g/m*3 11 C 0 km/h
764 30-09-2010 08:50:01 11 C 7.81 g/m*3 11 C 0 km/h
765 30-09-2010 09:02:01 11.2 C 7.91 g/m*3 11.2 C 0 km/h
766 30-09-2010 09:14:01 11.4 C 8.01 g/m*3 11.4 C 0 km/h
767 30-09-2010 09:26:01 11.4 C 7.8 g/m*3 11.4 C 0 km/h
768 30-09-2010 09:38:01 11.5 C 7.75 g/m*3 11.5 C 0 km/h
769 30-09-2010 09:50:02 11.5 C 7.85 g/m*3 11.5 C 0 km/h
770 30-09-2010 10:02:02 11.4 C 8.01 g/m*3 11.4 C 0 km/h
771 30-09-2010 10:14:02 11.4 C 8.11 g/m*3 11.4 C 0 km/h
772 30-09-2010 10:26:03 11.7 C 8.37 g/m*3 11.7 C 0 km/h
773 30-09-2010 10:38:02 11.8 C 8.42 g/m*3 11.8 C 0 km/h
774 30-09-2010 10:50:02 11.9 C 8.47 g/m*3 11.9 C 0 km/h
775 30-09-2010 11:02:02 12 C 8.42 g/m*3 12 C 0 km/h
Sensor: Nr:Datum:Temp:Abs-Feuchte:Windchill:Wind:
Aussen-T/F 776 30-09-2010 11:14:02 12 C 8.42 g/m*3 12 C 0 km/h
777 30-09-2010 11:26:02 11.8 C 8.42 g/m*3 11.8 C 0 km/h
778 30-09-2010 11:38:01 11.7 C 8.47 g/m*3 11.7 C 0 km/h
779 30-09-2010 11:50:02 11.8 C 8.63 g/m*3 11.8 C 0 km/h
780 30-09-2010 12:02:01 11.9 C 8.79 g/m*3 11.9 C 0 km/h
781 30-09-2010 12:14:01 11.9 C 8.9 g/m*3 11.9 C 0 km/h
782 30-09-2010 12:26:02 12 C 8.95 g/m*3 12 C 0 km/h
783 30-09-2010 12:38:02 12.1 C 9.01 g/m*3 12.1 C 0 km/h
784 30-09-2010 12:50:02 12 C 9.06 g/m*3 12 C 0 km/h
785 30-09-2010 13:02:02 12.4 C 9.4 g/m*3 12.4 C 0 km/h
786 30-09-2010 13:14:02 12.6 C 9.51 g/m*3 12.6 C 0 km/h
787 30-09-2010 13:26:02 12.6 C 9.51 g/m*3 12.6 C 0 km/h
788 30-09-2010 13:38:02 12.6 C 9.62 g/m*3 12.6 C 0 km/h
789 30-09-2010 13:50:01 12.7 C 9.68 g/m*3 12.7 C 0 km/h
790 30-09-2010 14:02:02 12.9 C 9.81 g/m*3 12.9 C 0 km/h
791 30-09-2010 14:14:02 13 C 9.87 g/m*3 13 C 0 km/h
792 30-09-2010 14:26:01 12.8 C 9.86 g/m*3 12.8 C 0 km/h
793 30-09-2010 14:38:01 12.9 C 9.92 g/m*3 12.9 C 0 km/h
794 30-09-2010 14:50:01 13.1 C 10.04 g/m*3 13.1 C 0 km/h
795 30-09-2010 15:02:02 13.2 C 10.1 g/m*3 13.2 C 0 km/h
796 30-09-2010 15:14:03 13.2 C 10.1 g/m*3 13.2 C 0 km/h
797 30-09-2010 15:26:01 13.4 C 10.23 g/m*3 13.4 C 0 km/h
798 30-09-2010 15:38:01 13.3 C 10.17 g/m*3 13.3 C 0 km/h
799 30-09-2010 15:50:01 13.2 C 9.99 g/m*3 13.2 C 0 km/h
800 30-09-2010 16:02:01 13.5 C 10.29 g/m*3 13.5 C 0 km/h
Sensor: Nr:Datum:Temp:Abs-Feuchte:Windchill:Wind:
Aussen-T/F 801 30-09-2010 16:14:01 13.5 C 10.29 g/m*3 13.5 C 0 km/h
802 30-09-2010 16:26:02 13.6 C 10.24 g/m*3 13.6 C 0 km/h
803 30-09-2010 16:38:01 13.3 C 10.05 g/m*3 13.3 C 0 km/h
804 30-09-2010 16:50:03 13.1 C 9.93 g/m*3 13.1 C 0 km/h
805 30-09-2010 17:02:02 13.1 C 9.93 g/m*3 13.1 C 0 km/h
806 30-09-2010 17:14:02 13 C 9.98 g/m*3 13 C 0 km/h
807 30-09-2010 17:26:02 13 C 9.98 g/m*3 13 C 0 km/h
808 30-09-2010 17:38:02 12.9 C 10.03 g/m*3 12.9 C 0 km/h
809 30-09-2010 17:50:02 12.8 C 9.97 g/m*3 12.8 C 0 km/h
810 30-09-2010 18:02:02 12.7 C 9.91 g/m*3 12.7 C 0 km/h
811 30-09-2010 18:14:02 12.5 C 9.78 g/m*3 12.5 C 0 km/h
812 30-09-2010 18:26:02 12.5 C 9.78 g/m*3 12.5 C 0 km/h
813 30-09-2010 18:38:02 12.4 C 9.83 g/m*3 12.4 C 0 km/h
814 30-09-2010 18:50:01 12.3 C 9.77 g/m*3 12.3 C 0 km/h
815 30-09-2010 19:02:02 12.2 C 9.71 g/m*3 12.2 C 0 km/h
816 30-09-2010 19:14:02 12.1 C 9.76 g/m*3 12.1 C 0 km/h
817 30-09-2010 19:26:02 12.1 C 9.76 g/m*3 12.1 C 0 km/h
818 30-09-2010 19:38:02 12.2 C 9.82 g/m*3 12.2 C 0 km/h
819 30-09-2010 19:50:02 12.1 C 9.87 g/m*3 12.1 C 0 km/h
820 30-09-2010 20:02:02 12.2 C 9.93 g/m*3 12.2 C 0 km/h
821 30-09-2010 20:14:02 12.2 C 9.93 g/m*3 12.2 C 0 km/h
822 30-09-2010 20:26:02 12.1 C 9.87 g/m*3 12.1 C 0 km/h
823 30-09-2010 20:38:01 12.1 C 9.87 g/m*3 12.1 C 0 km/h
824 30-09-2010 20:50:02 12.2 C 10.04 g/m*3 12.2 C 0 km/h
825 30-09-2010 21:02:01 12.1 C 9.97 g/m*3 12.1 C 0 km/h
Sensor: Nr:Datum:Temp:Abs-Feuchte:Windchill:Wind:
Aussen-T/F 826 30-09-2010 21:14:01 12.1 C 9.97 g/m*3 12.1 C 0 km/h
827 30-09-2010 21:26:02 12.1 C 9.97 g/m*3 12.1 C 0 km/h
828 30-09-2010 21:38:01 12.1 C 9.97 g/m*3 12.1 C 0 km/h
829 30-09-2010 21:50:02 12 C 9.91 g/m*3 12 C 0 km/h
830 30-09-2010 22:02:02 12 C 9.91 g/m*3 12 C 0 km/h
831 30-09-2010 22:14:02 12 C 9.91 g/m*3 12 C 0 km/h
832 30-09-2010 22:26:02 11.9 C 9.96 g/m*3 11.9 C 0 km/h
833 30-09-2010 22:38:02 11.9 C 9.96 g/m*3 11.9 C 0 km/h
834 30-09-2010 22:50:01 12 C 9.91 g/m*3 12 C 0 km/h
835 30-09-2010 23:03:03 12 C 9.91 g/m*3 12 C 0 km/h
836 30-09-2010 23:15:03 11.9 C 9.96 g/m*3 11.9 C 0 km/h
837 30-09-2010 23:27:03 12 C 10.02 g/m*3 12 C 0 km/h
838 30-09-2010 23:39:03 12.1 C 10.08 g/m*3 12.1 C 0 km/h
839 30-09-2010 23:51:03 12 C 10.02 g/m*3 12 C 0 km/h

Legende:
   Min
   Max


Maximal/Minimal-Werte vom 24.09.2010 - 30.09.2010

Sensor Min Max Avg
Temp
(Aussen-T/F)
5.9 °C
27-09-2010  04:59:05
19.7 °C
29-09-2010  15:48:01
11.99 °C
Abs-Feuchte
(Aussen-T/F)
4.43 g/m*3
25-09-2010  15:10:02
12.48 g/m*3
24-09-2010  12:33:03
8.67 g/m*3
Windchill
(Aussen-T/F)
5.9 C
27-09-2010  04:59:05
19.7 C
29-09-2010  15:48:01
11.98 C

Die Daten stammen von einer Davis Vantage Pro 2 Wetter-Station und werden unter Linux mit der Software wview2wettercgi und aufbereitet. Alle Angaben erfolgen ohne Gewähr für ihre Vollständigkeit oder Richtigkeit.
Kontakt: Rainer Krienke krienke@uni-koblenz.de . Meine Webseiten an der Uni Koblenz oder privat.
Version: $Revision: 0.78 $